This is the latest recevied weather packets stored in our database for station/object CE4ERM-13. If no packets are shown the sender has not sent any weather packets the latest 10 day(s).
| Time | Temp. | Humidity | Pressure | Rain* | Wind** | Luminosity | Snow |
|---|---|---|---|---|---|---|---|
| 1778040401 | 20.56° C | 41% | 1016.6 hPa | - | - | - | - |
| 1778040012 | 22.78° C | 42% | 1017.7 hPa | - | - | - | - |
| 1778040012 | 20.56° C | 41% | 1017.4 hPa | - | - | - | - |
| 1778039945 | 22.78° C | 42% | 1017.7 hPa | - | - | - | - |
| 1778039797 | 20.56° C | 41% | 1017.4 hPa | - | - | - | - |
| 1778039408 | 20.56° C | 42% | 1019.3 hPa | - | - | - | - |
| 1778039231 | 20.56° C | 42% | 1019.3 hPa | - | - | - | - |
| 1778039197 | 20.56° C | 42% | 1019.3 hPa | - | - | - | - |
| 1778038745 | 22.78° C | 42% | 1018 hPa | - | - | - | - |
| 1778038682 | 20.56° C | 42% | 1018.3 hPa | - | - | - | - |
| 1778038597 | 20.56° C | 42% | 1018.3 hPa | - | - | - | - |
| 1778037544 | 22.78° C | 43% | 1017.5 hPa | - | - | - | - |
| 1778037396 | 21.11° C | 41% | 1019.4 hPa | - | - | - | - |
| 1778036944 | 22.78° C | 42% | 1017.3 hPa | - | - | - | - |
| 1778036795 | 21.11° C | 42% | 1020 hPa | - | - | - | - |
| 1778036343 | 22.78° C | 42% | 1019 hPa | - | - | - | - |
| 1778036195 | 21.11° C | 41% | 1018.9 hPa | - | - | - | - |
| 1778035743 | 22.78° C | 42% | 1017.8 hPa | - | - | - | - |
| 1778034994 | 21.11° C | 42% | 1018.5 hPa | - | - | - | - |
| 1778034543 | 22.78° C | 43% | 1016.8 hPa | - | - | - | - |
| 1778034394 | 21.11° C | 42% | 1018.2 hPa | - | - | - | - |
| 1778034013 | 23.33° C | 42% | 1017.6 hPa | - | - | - | - |
| 1778034013 | 21.11° C | 41% | 1017.7 hPa | - | - | - | - |
| 1778033942 | 23.33° C | 42% | 1017.6 hPa | - | - | - | - |
| 1778033793 | 21.11° C | 41% | 1017.7 hPa | - | - | - | - |
* Rain since midnight (hover to see other rain measurements)
** Current wind speed in m/s (hover to see current wind gust speed)